DELTA 1 DEB, 21433

Orbit data source: Space-Track

DELTA 1 DEB, 21433 is space debris in SSO originally from a launch on Thu, 12 Jun 1975 UTC launched from the Air Force Western Test Range (AFWTR). Debris objects in space refer to the collection of defunct objects orbiting the Earth. Examples of debris include non-operational satellites, rocket bodies, and fragments generated from explosions, collisions, or faulty payload assembly.

Loading next visibility...
Identifier
21433, 1975-052DR
Orbit
SSO
Country
Flag of USUS
Related business
Manufacturer
Unknown
Mission
Spacecraft
Bus & Motor
Unknown
Mass
Unknown
Launch date (UTC)
1975-06-12 (51 years ago)
Launch vehicle
Unknown
Launch site
Air Force Western Test Range (AFWTR)
Object type
Payload
Rocket body
Debris
Shape & HBR
Unknown shape, 0.3 m
Radar Cross Section
Small (<0.1 m²)

Expand to show TLE details & history
Last TLE update: 6 hours ago

TLE from 6 hours ago
0 DELTA 1 DEB
1 21433U 75052DR  25349.99079297  .00000256  00000-0  46467-3 0  9990
2 21433  99.7154 151.6429 0058656 337.0046 138.6836 13.50222745703388
Epoch: 2025-12-15T23:46Z
TLE epoch observation values (Epoch: 2025-12-15T23:46:44.512Z)
Latitude
62.33297°
Longitude
-90.96478°
Altitude
1,114.981 km
Speed
7.285 km/s
True Right ascension
23h 22m 24s
True Declination
62° 11' 53"
Sunlit
Object was in daylight at epoch
Visualization orbit readout
Latitude
Unknown
Longitude
Unknown
Altitude
Unknown
Speed
Unknown
Apparent Right ascension
Unknown
Apparent Declination
Unknown
Sunlit
N/A
Visualization observer readout
Local Sidereal Time
03:56:44
Azimuth
Unknown
Elevation
Unknown
Doppler factor
Unknown
Orbital elements
Apogee altitude
1,112.421 km
Perigee altitude
1,025.06 km
Semi-major axis
7,446.878 km
Eccentricity
0.00587
Inclination
99.7154°
RAAN
151.6429°
Arg. of periapsis
337.0046°
True anomaly
139.12493°
Mean anomaly
138.6836°
Eccentric anomaly
138.90451°
Mean motion
3.37739 °/min
Orbital period
106.59 mins
BSTAR
0.00046467
Loading maneuver chart data...
Computing Atmospheric mass density...
Loading historical data...
Loading historical data...
Loading historical data...
Loading historical data...
Loading historical data...
Loading historical data...
Loading historical data...

Documentation

Showing up to 5 results
|